Date,TemperatureHighF,TemperatureAvgF,TemperatureLowF,DewpointHighF,DewpointAvgF,DewpointLowF,HumidityHigh,HumidityAvg,HumidityLow,PressureMaxIn,PressureMinIn,WindSpeedMaxMPH,WindSpeedAvgMPH,GustSpeedMaxMPH,PrecipitationSumIn
2014-1-1,40,36,29,26,7,-4,67,32,17,30.30,29.97,16,2,0,0.00
2014-1-2,40,32,8,40,29,4,99,90,69,29.99,29.58,16,4,0,0.57
2014-1-3,22,12,3,9,2,-2,85,67,34,30.42,29.86,16,3,0,0.01
2014-1-4,39,31,22,35,5,-20,91,42,11,30.34,30.06,22,6,0,0.01
2014-1-5,47,43,39,43,39,35,99,86,74,30.06,29.50,17,6,0,0.15
2014-1-6,44,13,-7,43,6,-17,99,74,47,30.25,29.50,12,3,0,0.19
2014-1-7,21,7,-9,6,-7,-19,74,53,31,30.50,30.25,4,0,0,0.00
2014-1-8,38,29,19,15,9,5,57,44,32,30.49,30.33,4,0,0,0.01
2014-1-9,46,36,30,40,16,-3,100,50,21,30.39,30.25,13,0,0,0.02
2014-1-10,52,47,40,51,46,40,100,97,89,30.23,29.86,7,0,0,0.28
2014-1-11,53,45,31,52,40,23,98,83,49,29.80,29.47,13,3,0,1.42
2014-1-12,46,37,29,25,21,8,77,54,22,30.09,29.76,3,1,0,0.01
2014-1-13,47,42,36,36,22,8,97,50,21,30.01,29.76,2,1,0,0.08
2014-1-14,42,37,31,39,29,17,99,76,37,29.93,29.65,1,0,0,0.35
2014-1-15,34,26,14,26,22,10,95,83,57,29.97,29.82,1,0,3,0.05
2014-1-16,32,20,10,15,10,4,90,67,35,30.02,29.90,7,1,13,0.01
2014-1-17,34,26,14,20,14,6,81,62,31,29.90,29.72,9,2,19,0.00
2014-1-18,28,18,8,13,6,0,81,60,33,30.05,29.86,12,2,20,0.01
2014-1-19,38,30,23,23,16,-1,90,59,21,30.00,29.83,14,2,19,0.00
2014-1-20,50,42,36,22,14,-4,53,33,17,29.91,29.71,5,1,10,0.00
2014-1-21,38,27,4,26,19,0,92,73,53,29.87,29.53,9,1,19,0.00
2014-1-22,21,10,0,7,0,-10,84,67,41,30.10,29.87,4,0,20,0.08
2014-1-23,21,11,-3,4,-2,-9,76,57,26,30.43,30.07,3,0,10,0.00
2014-1-24,20,7,-8,-2,-12,-23,79,47,13,30.60,30.13,4,0,17,0.00
2014-1-25,25,20,17,18,2,-28,92,55,11,30.12,29.70,20,7,28,0.00
2014-1-26,40,30,19,27,15,-4,72,54,29,29.91,29.75,7,1,14,0.01
2014-1-27,41,32,12,32,25,3,96,75,60,30.05,29.70,11,2,24,0.03
2014-1-28,19,13,9,17,8,1,92,82,65,30.19,30.01,1,0,8,0.00
2014-1-29,16,9,-2,8,-2,-13,88,63,40,30.38,30.12,2,0,4,0.06
2014-1-30,34,23,10,-1,-7,-14,54,27,16,30.30,30.08,1,0,4,0.01
2014-1-31,46,38,31,23,6,-10,51,27,15,30.12,30.00,4,0,10,0.01
2014-2-1,54,47,39,43,23,-4,74,45,13,30.06,29.90,8,1,16,0.00
2014-2-2,51,46,37,49,42,23,100,89,40,29.97,29.79,11,1,19,0.38
2014-2-3,52,45,35,52,42,34,99,91,74,30.03,29.64,12,1,18,1.88
2014-2-4,51,43,33,50,40,28,99,88,61,30.16,29.76,11,1,27,0.10
2014-2-5,50,40,19,49,35,17,100,84,57,30.05,29.62,14,7,28,0.35
2014-2-6,28,21,15,24,19,13,95,91,80,30.30,30.06,5,1,17,0.00
2014-2-7,38,28,19,24,21,17,95,77,54,30.26,30.13,8,3,12,0.01
2014-2-8,36,32,29,31,26,22,96,81,67,30.14,30.03,10,2,14,0.00
2014-2-9,40,33,29,32,29,27,97,88,72,30.08,29.92,10,3,15,0.00
2014-2-10,34,27,23,30,26,22,98,93,67,30.13,29.94,8,1,21,0.05
2014-2-11,28,25,22,28,24,20,98,96,86,30.23,30.10,2,0,9,0.01
2014-2-12,26,21,16,23,19,14,96,92,68,30.24,29.81,2,0,3,0.00
2014-2-13,28,24,21,26,21,14,96,89,67,29.79,29.61,6,2,15,0.00
2014-2-14,44,33,23,29,21,14,95,62,44,29.83,29.51,6,3,13,0.34
2014-2-15,31,26,19,29,15,-10,97,67,20,30.08,29.47,9,3,19,0.12
2014-2-16,43,33,26,26,22,11,93,66,42,30.11,29.93,9,4,19,0.02
2014-2-17,45,38,29,37,17,-17,97,49,9,30.14,29.95,12,4,25,0.18
2014-2-18,54,42,30,41,24,8,97,55,16,30.14,29.90,13,3,20,0.00
2014-2-19,55,49,45,47,43,39,96,81,56,29.97,29.77,14,6,25,1.09
2014-2-20,58,52,47,50,46,43,92,81,63,29.96,29.68,10,5,25,0.00
2014-2-21,54,43,31,49,29,-1,98,62,18,30.04,29.57,11,5,21,0.76
2014-2-22,54,43,36,18,8,-2,41,25,13,30.12,29.95,5,2,18,0.00
2014-2-23,56,47,40,30,21,4,59,36,22,29.98,29.80,11,5,18,0.00
2014-2-24,44,36,30,32,25,17,92,66,35,30.10,29.83,5,2,13,0.00
2014-2-25,48,40,30,30,20,10,70,47,25,29.98,29.79,9,4,23,0.00
2014-2-26,32,25,16,21,17,6,85,70,58,29.89,29.74,5,2,14,0.00
2014-2-27,40,27,16,12,-1,-17,86,32,14,29.94,29.76,8,3,11,0.00
2014-2-28,44,36,29,14,11,6,49,35,21,30.08,30.02,5,2,10,0.00
2014-3-1,50,38,29,36,27,14,85,64,46,30.19,30.06,7,3,15,0.00
2014-3-2,56,48,39,46,42,35,87,80,67,30.09,29.76,11,5,20,0.00
2014-3-3,49,37,24,46,36,24,99,94,80,30.04,29.60,7,2,15,0.73
2014-3-4,34,29,23,34,29,22,100,98,95,30.14,30.03,4,1,10,0.03
2014-3-5,49,40,29,30,16,-16,100,42,10,30.07,29.96,3,1,4,0.00
2014-3-6,35,30,25,31,20,10,99,67,39,30.15,29.98,3,1,4,0.00
2014-3-7,42,36,29,37,32,28,100,89,65,29.98,29.87,4,1,5,0.43
2014-3-8,56,45,37,39,31,23,83,59,33,30.02,29.91,5,2,11,0.00
2014-3-9,56,45,38,37,27,12,80,53,23,30.04,29.91,7,3,10,0.00
2014-3-10,61,48,36,38,27,14,76,47,26,30.01,29.77,12,4,17,0.00
2014-3-11,67,53,40,42,30,11,67,43,20,29.78,29.57,12,4,14,0.00
2014-3-12,54,43,20,50,39,14,99,86,64,29.67,29.26,13,6,24,0.24
2014-3-13,31,23,16,15,6,-4,88,51,24,30.24,29.67,10,4,26,0.00
2014-3-14,50,39,28,23,16,1,60,39,29,30.23,29.95,8,4,22,0.00
2014-3-15,56,45,36,34,28,18,70,51,24,30.00,29.91,10,2,23,0.00
2014-3-16,45,42,39,44,38,26,100,87,48,29.93,29.55,5,1,15,0.66
2014-3-17,45,44,41,45,43,41,100,99,95,29.67,29.52,4,1,15,0.37
2014-3-18,49,42,36,45,40,36,100,93,77,29.93,29.67,4,1,15,0.01
2014-3-19,55,44,36,40,37,29,100,78,40,29.95,29.81,13,5,24,0.00
2014-3-20,48,41,33,35,20,3,82,48,17,30.02,29.85,7,3,15,0.00
2014-3-21,56,45,33,21,14,6,50,31,18,30.07,29.91,9,3,15,0.00
2014-3-22,58,50,42,38,31,20,71,50,39,29.95,29.85,9,4,18,0.00
2014-3-23,47,38,26,41,34,20,100,86,71,30.09,29.79,6,2,15,0.40
2014-3-24,43,30,18,24,19,11,89,65,38,30.18,29.95,3,2,15,0.00
2014-3-25,33,25,13,28,20,6,96,82,61,30.08,29.78,7,3,15,0.08
2014-3-26,32,22,9,19,7,1,75,54,28,30.29,30.07,7,3,17,0.03
2014-3-27,50,38,29,26,9,-7,56,31,16,30.27,30.08,11,6,15,0.00
2014-3-28,48,45,41,48,43,27,100,93,57,30.10,29.94,11,4,19,0.12
2014-3-29,51,44,28,51,44,27,100,97,85,29.98,29.54,10,3,15,0.39
2014-3-30,44,34,26,27,20,2,98,65,18,30.09,29.78,9,5,19,0.13
2014-3-31,64,50,34,25,8,-19,38,20,6,30.12,29.97,6,2,15,0.00
2014-4-1,68,57,50,38,26,10,39,30,19,30.03,29.89,9,4,12,0.00
2014-4-2,71,60,52,39,30,18,49,32,22,29.98,29.87,6,3,11,0.00
2014-4-3,73,61,54,52,44,21,87,58,25,29.93,29.72,10,4,17,0.00
2014-4-4,58,54,47,52,48,41,94,80,64,29.79,29.65,13,5,26,0.15
2014-4-5,53,42,31,43,34,30,97,72,47,30.03,29.77,6,2,19,0.00
2014-4-6,55,44,37,39,32,27,97,63,38,30.03,29.88,5,1,7,0.04
2014-4-7,53,46,36,51,45,36,100,96,80,29.89,29.51,12,4,20,0.66
2014-4-8,48,39,35,44,34,30,95,82,68,29.74,29.53,9,3,17,0.15
2014-4-9,48,40,36,37,30,24,98,71,41,30.09,29.73,6,3,11,0.10
2014-4-10,62,49,36,33,29,25,68,48,27,30.18,30.03,8,3,10,0.03
2014-4-11,64,54,47,37,32,24,61,45,28,30.09,29.95,10,4,15,0.03
2014-4-12,70,58,48,48,42,37,77,58,34,30.09,29.93,10,3,13,0.02
2014-4-13,70,58,52,49,47,44,80,67,40,30.01,29.85,12,5,22,0.03
2014-4-14,56,53,51,52,49,46,98,87,75,29.85,29.66,9,5,14,0.02
2014-4-15,53,38,21,52,36,18,99,94,85,30.02,29.51,7,4,18,0.02
2014-4-16,49,33,18,24,16,-2,91,53,22,30.30,30.02,6,2,7,0.56
2014-4-17,54,39,27,32,24,19,77,58,36,30.38,30.27,3,1,7,0.21
2014-4-18,47,41,36,39,32,24,96,71,56,30.31,30.10,3,0,5,0.03
2014-4-19,49,43,40,43,40,34,99,90,73,30.17,30.00,5,2,6,0.06
2014-4-20,62,49,39,41,35,25,94,60,35,30.19,30.06,3,1,9,0.02
2014-4-21,66,56,45,42,37,23,63,50,37,30.08,29.83,4,2,7,0.00
2014-4-22,55,52,50,51,46,38,94,80,57,29.83,29.66,8,4,12,0.07
2014-4-23,62,50,40,45,28,14,81,46,16,29.93,29.71,7,2,13,0.00
2014-4-24,67,56,44,38,27,15,59,34,22,29.96,29.78,7,3,10,0.00
2014-4-25,59,53,46,50,45,38,89,73,59,29.84,29.62,12,4,20,0.03
2014-4-26,69,56,44,40,35,27,79,49,26,29.94,29.84,5,1,6,0.00
2014-4-27,73,62,53,53,42,35,89,49,27,29.89,29.75,7,3,13,0.01
2014-4-28,70,61,54,56,52,45,95,74,47,29.79,29.65,8,4,21,0.12
2014-4-29,65,58,54,57,53,50,97,82,65,29.77,29.51,14,6,21,0.79
2014-4-30,62,57,51,55,52,47,95,82,62,29.76,29.66,9,5,15,0.07
2014-5-1,58,50,41,48,37,22,90,65,27,29.85,29.73,8,4,13,0.04
2014-5-2,58,46,38,37,32,28,73,59,37,29.90,29.77,5,2,10,0.00
2014-5-3,60,49,37,37,34,30,81,57,35,29.92,29.80,7,4,17,0.00
2014-5-4,70,59,48,43,38,34,62,47,27,29.95,29.82,7,3,12,0.00
2014-5-5,75,65,56,49,42,34,63,46,24,29.87,29.73,7,3,12,0.00
2014-5-6,75,65,56,48,41,33,60,43,22,29.84,29.72,11,4,18,0.00
2014-5-7,75,65,54,48,42,30,69,45,20,29.95,29.81,7,3,12,0.00
2014-5-8,74,64,54,51,46,40,70,53,34,30.06,29.91,7,3,16,0.00
2014-5-9,64,59,54,54,51,46,97,76,61,29.99,29.90,8,4,21,0.16
2014-5-10,61,56,53,54,52,49,95,86,75,30.00,29.87,9,4,18,0.05
2014-5-11,71,61,51,56,53,48,96,75,52,30.03,29.93,7,2,7,0.02
2014-5-12,75,64,57,61,56,48,92,75,56,30.05,29.97,5,2,10,0.01
2014-5-13,74,63,56,60,58,53,98,83,51,30.02,29.94,5,2,9,0.56
2014-5-14,72,62,56,58,53,44,96,75,39,30.01,29.81,6,2,12,0.16
2014-5-15,61,52,39,57,52,39,100,97,80,29.88,29.71,8,2,17,1.53
2014-5-16,49,40,32,42,34,28,99,82,60,30.05,29.86,7,2,11,0.09
2014-5-17,50,42,33,42,35,28,96,78,58,30.12,30.00,6,2,15,0.00
2014-5-18,51,45,38,47,42,37,99,92,79,30.14,30.08,3,0,9,0.03
2014-5-19,62,51,41,48,42,34,89,72,51,30.17,30.08,3,1,6,0.00
2014-5-20,68,58,47,56,50,45,94,76,54,30.13,29.97,8,3,16,0.00
2014-5-21,73,62,55,59,51,43,83,68,36,30.02,29.90,9,4,16,0.00
2014-5-22,74,63,56,61,55,50,91,75,53,29.98,29.85,7,3,16,0.07
2014-5-23,69,62,56,60,55,52,97,78,59,29.95,29.86,5,2,16,0.12
2014-5-24,68,58,49,55,49,34,96,72,47,30.03,29.91,2,1,16,0.00
2014-5-25,66,58,52,57,46,23,90,64,31,30.06,29.96,5,1,16,0.02
2014-5-26,70,62,56,61,55,48,94,79,58,30.08,29.98,5,2,16,0.17
2014-5-27,70,62,56,63,57,53,97,82,61,30.07,29.89,9,2,16,0.39
2014-5-28,75,65,56,61,54,44,96,70,35,29.95,29.85,7,2,16,0.05
2014-5-29,71,62,54,61,57,51,96,83,63,29.98,29.85,3,1,4,0.07
2014-5-30,69,64,57,61,58,55,95,81,67,29.97,29.90,7,0,7,0.05
2014-5-31,70,62,57,63,59,55,99,89,73,30.02,29.92,6,0,6,0.08
2014-6-1,62,58,54,57,56,52,100,93,80,30.15,30.01,5,0,6,0.14
2014-6-2,69,59,51,58,53,49,95,81,56,30.14,29.98,12,1,12,0.00
2014-6-3,68,61,54,62,57,51,95,86,74,30.00,29.88,12,1,12,0.00
2014-6-4,73,65,58,62,57,48,87,74,60,29.90,29.69,17,2,17,0.00
2014-6-5,68,63,59,61,59,54,99,86,71,29.75,29.59,23,2,23,0.19
2014-6-6,68,62,56,63,59,55,100,90,70,29.83,29.75,13,0,13,0.01
2014-6-7,71,63,57,64,59,55,96,86,67,29.87,29.79,7,0,7,0.00
2014-6-8,71,64,57,62,58,53,96,81,59,29.82,29.72,18,2,18,0.01
2014-6-9,71,62,54,60,56,49,97,79,59,29.81,29.72,21,2,21,0.00
2014-6-10,75,64,56,64,57,51,96,79,54,29.84,29.75,27,3,27,0.35
2014-6-11,67,61,57,62,57,54,99,87,72,29.79,29.68,16,2,16,0.41
2014-6-12,64,58,55,62,57,55,100,95,84,29.80,29.69,7,1,7,0.97
2014-6-13,66,59,55,60,56,52,97,88,64,29.83,29.73,8,1,8,0.25
2014-6-14,70,61,54,62,57,52,99,85,65,29.96,29.82,10,0,10,0.00
2014-6-15,76,66,58,63,59,54,98,79,55,30.02,29.92,10,1,10,0.37
2014-6-16,73,65,62,66,62,58,96,89,69,30.09,29.98,4,1,5,0.38
2014-6-17,75,68,62,66,60,57,91,77,54,30.07,29.95,6,1,11,0.00
2014-6-18,73,66,61,69,61,55,98,83,62,30.06,29.94,5,1,9,0.25
2014-6-19,74,67,62,69,61,57,92,80,67,30.03,29.95,7,2,10,0.42
2014-6-20,75,67,61,67,61,56,96,83,73,29.97,29.84,3,1,5,0.20
2014-6-21,73,65,60,62,59,55,96,80,55,29.85,29.75,4,1,9,0.00
2014-6-22,74,66,59,61,57,51,96,76,47,29.84,29.73,2,1,11,0.00
2014-6-23,72,65,58,65,60,57,99,86,69,29.94,29.79,2,0,6,0.06
2014-6-24,74,64,60,65,60,57,98,88,67,29.95,29.85,5,1,6,0.23
2014-6-25,71,64,60,62,59,58,96,86,69,29.92,29.82,7,2,11,0.06
2014-6-26,71,64,58,60,58,56,95,80,60,29.93,29.84,8,1,10,0.02
2014-6-27,71,65,61,64,60,56,97,86,70,29.97,29.84,2,0,4,0.13
2014-6-28,69,64,61,65,62,59,100,94,82,30.05,29.94,4,0,6,0.26
2014-6-29,74,64,58,65,61,57,100,90,67,30.08,29.97,7,1,10,0.16
2014-6-30,69,64,60,66,62,58,99,92,80,30.00,29.85,6,2,10,0.18
2014-7-1,78,69,62,69,63,59,98,83,64,29.87,29.75,7,2,11,0.00
2014-7-2,78,70,61,69,62,56,94,77,48,29.83,29.77,8,2,11,0.00
2014-7-3,71,64,55,65,60,50,99,87,77,29.92,29.79,5,1,10,0.00
2014-7-4,67,57,52,54,50,42,95,79,42,30.13,29.91,3,1,10,0.00
2014-7-5,69,59,49,58,51,44,90,76,62,30.16,30.05,4,1,10,0.00
2014-7-6,71,62,53,56,52,49,89,72,47,30.06,29.92,5,1,10,0.00
2014-7-7,74,65,58,62,58,55,92,79,59,29.95,29.81,5,2,10,0.00
2014-7-8,71,65,60,62,59,54,99,82,68,29.92,29.81,9,4,23,0.04
2014-7-9,69,63,59,64,60,57,99,88,77,29.93,29.82,8,3,23,0.47
2014-7-10,70,63,58,65,60,57,99,93,80,30.00,29.87,4,1,23,0.05
2014-7-11,74,66,60,63,59,55,92,80,56,30.07,29.97,2,1,5,0.00
2014-7-12,74,65,60,65,62,57,98,88,70,30.09,29.98,5,1,7,0.15
2014-7-13,76,68,62,66,62,58,95,81,62,30.01,29.88,5,1,8,0.00
2014-7-14,75,69,64,66,62,60,94,81,65,29.89,29.74,7,2,13,0.17
2014-7-15,69,64,57,63,60,56,99,88,76,29.77,29.66,6,2,12,0.19
2014-7-16,64,56,50,56,51,47,98,84,71,29.89,29.74,3,1,6,0.00
2014-7-17,69,59,50,58,52,46,89,79,56,29.98,29.86,3,0,4,0.00
2014-7-18,60,57,56,59,56,52,100,95,82,30.04,29.93,3,1,6,0.61
2014-7-19,61,58,56,61,58,56,100,100,99,30.00,29.93,2,0,5,0.76
2014-7-20,70,63,59,66,62,59,100,96,84,29.97,29.88,4,0,5,0.16
2014-7-21,68,63,60,65,62,60,100,97,89,30.01,29.88,4,0,5,0.04
2014-7-22,71,64,59,64,62,59,100,92,76,30.04,29.93,1,0,5,0.00
2014-7-23,71,64,60,66,62,60,99,94,80,29.99,29.82,7,1,11,0.98
2014-7-24,72,65,60,66,61,59,100,90,70,29.85,29.75,4,1,9,0.15
2014-7-25,73,64,56,62,58,51,100,84,46,29.92,29.81,5,1,8,0.02
2014-7-26,76,66,58,67,59,51,99,79,57,29.92,29.83,6,2,12,0.00
2014-7-27,77,68,58,68,60,52,100,77,58,29.86,29.69,9,3,13,1.90
2014-7-28,68,62,56,64,57,51,99,83,58,29.81,29.69,6,2,10,0.60
2014-7-29,63,56,49,56,51,45,98,85,65,29.96,29.81,5,1,7,0.00
2014-7-30,64,55,46,56,50,43,95,83,69,29.99,29.93,3,0,7,0.00
2014-7-31,61,57,54,58,54,49,98,90,81,30.02,29.94,1,0,3,0.00
2014-8-1,66,60,56,61,57,55,100,92,79,30.01,29.91,1,0,3,0.00
2014-8-2,65,60,56,62,58,55,100,94,84,30.00,29.92,2,0,3,0.04
2014-8-3,69,62,56,62,56,52,99,83,65,29.99,29.92,2,1,5,0.00
2014-8-4,69,62,57,61,57,52,95,84,73,29.99,29.91,2,0,4,0.00
2014-8-5,69,63,57,62,58,51,96,85,72,29.97,29.89,4,1,10,0.00
2014-8-6,72,64,57,63,56,48,94,76,64,29.94,29.84,3,1,10,0.01
2014-8-7,74,66,60,62,59,54,92,79,59,29.91,29.83,3,0,10,0.00
2014-8-8,66,63,60,63,60,54,100,92,70,29.98,29.83,3,1,10,1.36
2014-8-9,73,65,61,67,63,60,100,94,79,29.93,29.83,5,1,10,0.87
2014-8-10,68,64,60,66,63,60,100,99,91,29.90,29.82,2,0,10,0.11
2014-8-11,76,66,60,66,63,60,100,91,68,29.89,29.75,4,1,10,0.25
2014-8-12,72,64,59,67,61,57,99,90,70,29.78,29.66,7,2,10,0.21
2014-8-13,64,58,50,57,53,50,99,87,70,29.93,29.75,3,1,10,0.01
2014-8-14,68,58,50,59,54,50,100,88,71,29.95,29.86,2,0,10,0.00
2014-8-15,68,61,54,61,56,52,96,85,72,29.92,29.86,2,0,3,0.00
2014-8-16,69,62,56,61,56,50,92,80,61,29.95,29.87,3,0,4,0.00
2014-8-17,72,66,60,64,59,56,89,80,66,29.92,29.80,6,2,13,0.00
2014-8-18,71,65,62,64,61,57,99,89,72,29.81,29.67,8,3,14,0.54
2014-8-19,71,64,59,66,62,57,99,92,74,29.81,29.68,4,1,11,0.07
2014-8-20,76,66,57,69,61,52,96,83,61,30.01,29.79,6,1,9,0.45
2014-8-21,77,68,62,68,62,53,96,79,63,30.02,29.89,5,2,10,0.00
2014-8-22,77,70,64,66,62,59,93,77,58,29.97,29.85,6,2,10,0.00
2014-8-23,75,69,64,66,63,60,96,82,69,29.87,29.78,4,1,9,0.00
2014-8-24,73,66,60,66,64,60,100,93,74,29.92,29.76,1,0,5,0.12
2014-8-25,69,61,57,64,59,55,100,93,73,30.00,29.90,2,0,5,0.00
2014-8-26,70,61,52,60,56,52,100,86,66,30.03,29.96,2,0,4,0.00
2014-8-27,72,64,56,59,55,48,98,74,51,29.99,29.90,3,1,7,0.00
2014-8-28,77,68,60,64,60,52,93,75,53,29.93,29.84,3,0,5,0.00
2014-8-29,78,69,62,65,61,56,96,77,58,29.98,29.86,4,1,5,0.00
2014-8-30,76,67,61,66,60,55,87,76,60,30.03,29.94,4,1,9,0.00
2014-8-31,74,66,60,65,62,58,99,85,67,30.02,29.92,4,1,9,0.46
2014-9-1,77,68,64,65,62,59,90,81,59,29.99,29.91,4,2,10,0.00
2014-9-2,77,69,64,67,62,59,91,79,61,29.96,29.82,7,2,12,0.00
2014-9-3,73,65,59,67,61,55,100,88,68,29.94,29.82,8,2,13,0.62
2014-9-4,74,66,61,66,63,59,99,90,70,30.03,29.93,4,1,13,0.04
2014-9-5,72,66,61,66,62,59,100,90,69,30.06,29.95,3,0,13,0.33
2014-9-6,72,65,60,67,62,59,99,92,80,29.97,29.84,3,0,13,0.05
2014-9-7,71,64,60,64,61,56,97,88,74,29.92,29.84,2,0,13,0.01
2014-9-8,68,62,60,64,62,60,100,98,85,29.97,29.87,3,0,13,0.04
2014-9-9,70,63,58,65,61,58,100,94,79,29.98,29.90,5,0,13,0.35
2014-9-10,68,62,58,61,59,57,100,90,75,29.97,29.87,5,2,13,0.00
2014-9-11,69,64,62,66,62,59,100,93,81,29.91,29.84,7,3,13,0.53
2014-9-12,70,65,60,67,63,60,100,93,84,29.94,29.84,5,1,8,0.19
2014-9-13,67,62,57,65,61,57,100,97,90,30.02,29.86,4,1,10,0.00
2014-9-14,65,61,57,64,61,57,100,99,93,30.06,29.98,2,0,4,0.02
2014-9-15,68,62,58,62,59,56,100,93,76,30.06,29.95,6,1,7,0.34
2014-9-16,68,62,56,62,58,54,97,86,72,29.98,29.84,7,2,13,0.00
2014-9-17,70,60,54,60,56,50,100,88,51,29.85,29.74,3,0,6,0.01
2014-9-18,64,57,52,57,54,52,99,90,69,29.92,29.76,5,0,6,0.00